Location: Calberlah
(52.4230°N, 10.6240°E)
Time: 19:22:47
(UTC+00:00)

Cosmos 2184 Rocket - Pass Details

Date: 19 May 2025
Orbit: 959 x 1000 km, 82.9° (Epoch: 20 June)

Event Time Altitude Azimuth Distance (km) Brightness Sun altitude
Rises 19:51:39 0° 348° (NNW) 3,675 8.1 -5.4°
Reaches altitude 10° 19:54:10 10° 345° (NNW) 2,729 7.4 -5.6°
Maximum altitude 20:00:21 66° 265° (W) 1,069 4.5 -6.3°
Drops below altitude 10° 20:06:33 10° 185° (S) 2,740 6.0 -7.0°
Sets 20:09:05 0° 183° (S) 3,690 6.6 -7.2°
